Simultaneous Nadir Overpasses (SNOs) Predictions

Prediction of SNOs between METOP-B and NOAA-19 Satellite Orbit:

Table of predicted SNOs for the next 14.0 days since TLE Epoch: 6/5/2016
Index Date (METOP-B) Time (METOP-B) Lat,Lon (METOP-B) SZA (METOP-B ) Date (NOAA-19) Time (NOAA-19) Lat,Lon (NOAA-19) SZA (NOAA-19 ) Distance(km) Time Diff (sec)
1 06/15/2016 10:32:01 -76.09,-157.41 127.33 06/15/2016 10:30:46 -76.12,-157.47 127.29 4.45 75
2 06/15/2016 11:22:41 76.09, 9.95 52.69 06/15/2016 11:21:50 76.09, 9.88 52.68 1.99 51
3 06/15/2016 12:13:23 -76.07, 177.18 127.35 06/15/2016 12:12:47 -76.08, 177.19 127.34 1.04 36
4 06/15/2016 13:04:03 76.08, -15.45 52.66 06/15/2016 13:03:51 76.04, -15.46 52.63 3.62 12
5 06/15/2016 13:54:45 -76.05, 151.78 127.37 06/15/2016 13:54:48 -76.03, 151.85 127.39 2.82 3
6
